Location: Contre
(49.7477°N, 2.0963°E)
Time: 08:13:29
(UTC+00:00)

Cosmos 1954 Rocket - Visible Passes

Search period start: 24 September 2023 00:00
Search period end: 04 October 2023 00:00
Orbit: 751 x 780 km, 74.0° (Epoch: 23 September)

Date Brightness Start Highest point End Pass type
(mag) Time Alt. Az. Time Alt. Az. Time Alt. Az.
24 Sep 6.5 00:21:05 16° NNW 00:21:05 16° NNW 00:22:46 10° N visible
24 Sep 6.5 23:43:48 17° N 23:43:48 17° N 23:45:14 10° N visible
25 Sep 6.6 23:06:31 16° N 23:06:31 16° N 23:07:34 10° NNE visible
26 Sep 6.8 00:46:42 11° NNW 00:46:42 11° NNW 00:47:24 10° NNW visible
26 Sep 6.6 22:29:13 13° NNE 22:29:13 13° NNE 22:29:47 10° NNE visible
27 Sep 6.7 00:09:24 13° NNW 00:09:24 13° NNW 00:10:40 10° N visible
27 Sep 6.7 23:32:05 15° N 23:32:05 15° N 23:33:18 10° N visible
28 Sep 6.7 22:54:45 15° N 22:54:45 15° N 22:55:45 10° N visible
29 Sep 6.6 22:17:24 13° NNE 22:17:24 13° NNE 22:18:03 10° NNE visible
29 Sep 6.9 23:57:35 11° NNW 23:57:35 11° NNW 23:58:12 10° NNW visible
30 Sep 6.6 05:07:34 10° N 05:11:16 19° NE 05:14:58 10° E visible
30 Sep 6.6 21:40:01 11° NNE 21:40:01 11° NNE 21:40:15 10° NNE visible
30 Sep 6.8 23:20:12 13° NNW 23:20:12 13° NNW 23:21:15 10° N visible
01 Oct 6.8 04:30:21 10° N 04:32:53 13° NE 04:35:26 10° ENE visible
01 Oct 6.7 22:42:48 14° N 22:42:48 14° N 22:43:50 10° N visible
02 Oct 6.6 22:05:21 14° N 22:05:21 14° N 22:06:15 10° N visible
03 Oct 6.3 04:55:33 10° N 04:59:55 25° NE 05:04:17 10° ESE visible
03 Oct 6.5 21:27:52 14° NNE 21:27:52 14° NNE 21:28:31 10° NNE visible
03 Oct 6.9 23:08:03 11° NNW 23:08:03 11° NNW 23:08:54 10° NNW visible
